{"data":{"norad_id":56305,"intl_designator":"2023-056V","name":"STARLINK-30094","alt_names":[],"object_type":"PAYLOAD","status":"ACTIVE","operator":null,"country":"US","launch_date":"2023-04-19","launch_site_code":"AFETR","launch_vehicle":null,"mission":null,"orbit_class":"UNKNOWN","rcs_meters":null,"size_class":null,"mass_kg":null,"dimensions":null,"purposes":["comms"],"wikipedia_slug":null,"has_3d_model":false,"image_url":null,"decayed_at":null,"tle_current":{"epoch":"2026-09-20T11:45:57.435840Z","epoch_age_seconds":109506,"freshness":"FRESH","line1":"1 56305U 23056V   26263.49024810  .00000155  00000+0  15135-4 0  9991","line2":"2 56305  43.0038 188.5642 0000645 283.9606  76.1174 15.27576640189896","mean_motion":15.2757664,"eccentricity":6.45e-5,"inclination_deg":43.0038,"raan_deg":188.5642,"arg_perigee_deg":283.9606,"mean_anomaly_deg":76.1174,"bstar":1.5135e-5,"rev_number":18989,"period_min":94.266956059239,"perigee_km":482.61660995471,"apogee_km":483.50170425898,"semimajor_km":6861.1961571068,"source":"CELESTRAK","updated_at":"2026-09-21T09:00:33.399969Z"}}}